| time (UTC) | temp F | wind direction | speed MPH | gust MPH | rain 1hr in | rain 24hr in | rain mn in | humidity % | barometer mb |
| 20260831064602 | 48 | 257 | 6.0 | 9.0 | 0.00 | 0.02 | 0.00 | 74 | 1012.3 |
| 20260831063110 | 49 | 257 | 4.0 | 10.0 | 0.00 | 0.02 | 0.00 | 72 | 1012.6 |
| 20260831061555 | 50 | 257 | 7.0 | 12.0 | 0.00 | 0.02 | 0.00 | 70 | 1012.4 |
| 20260831060109 | 51 | 263 | 4.0 | 8.0 | 0.00 | 0.02 | 0.00 | 67 | 1012.5 |
| 20260831054558 | 52 | 263 | 6.0 | 9.0 | 0.00 | 0.02 | 0.02 | 65 | 1012.7 |
| 20260831053126 | 53 | 267 | 6.0 | 11.0 | 0.00 | 0.02 | 0.02 | 64 | 1012.5 |
| 20260831051602 | 53 | 267 | 6.0 | 11.0 | 0.00 | 0.02 | 0.02 | 63 | 1012.4 |
| 20260831044645 | 55 | 267 | 7.0 | 17.0 | 0.00 | 0.03 | 0.02 | 59 | 1012.3 |
| 20260831043055 | 56 | 272 | 9.0 | 20.0 | 0.00 | 0.03 | 0.02 | 56 | 1012.3 |
| 20260831041607 | 57 | 263 | 13.0 | 24.0 | 0.00 | 0.03 | 0.02 | 52 | 1012.2 |
| 20260831040059 | 58 | 267 | 16.0 | 27.0 | 0.00 | 0.03 | 0.02 | 50 | 1012.1 |
| 20260831034555 | 58 | 260 | 14.0 | 24.0 | 0.00 | 0.04 | 0.02 | 49 | 1012.0 |
| 20260831033109 | 59 | 267 | 14.0 | 27.0 | 0.00 | 0.04 | 0.02 | 48 | 1012.0 |
| 20260831031555 | 59 | 261 | 16.0 | 24.0 | 0.00 | 0.04 | 0.02 | 47 | 1011.9 |
| 20260831030058 | 59 | 271 | 14.0 | 24.0 | 0.00 | 0.04 | 0.02 | 48 | 1011.8 |
| 20260831024603 | 59 | 271 | 12.0 | 23.0 | 0.00 | 0.04 | 0.02 | 48 | 1011.6 |
| 20260831023056 | 59 | 263 | 13.0 | 23.0 | 0.00 | 0.04 | 0.02 | 47 | 1011.3 |
| 20260831021557 | 59 | 270 | 16.0 | 28.0 | 0.00 | 0.04 | 0.02 | 46 | 1011.1 |
| 20260831020054 | 60 | 259 | 15.0 | 28.0 | 0.00 | 0.04 | 0.02 | 46 | 1010.9 |
| 20260831014556 | 60 | 267 | 16.0 | 28.0 | 0.00 | 0.04 | 0.02 | 46 | 1010.9 |
| 20260831013105 | 60 | 275 | 16.0 | 29.0 | 0.00 | 0.04 | 0.02 | 45 | 1010.9 |
| 20260831011557 | 61 | 270 | 20.0 | 31.0 | 0.00 | 0.04 | 0.02 | 44 | 1010.9 |
| 20260831010118 | 62 | 262 | 16.0 | 29.0 | 0.00 | 0.04 | 0.02 | 43 | 1011.0 |
| 20260831004557 | 62 | 288 | 17.0 | 30.0 | 0.00 | 0.05 | 0.02 | 44 | 1011.2 |
| 20260831003104 | 62 | 262 | 18.0 | 30.0 | 0.00 | 0.05 | 0.02 | 43 | 1011.1 |
| 20260831001603 | 62 | 275 | 19.0 | 34.0 | 0.00 | 0.05 | 0.02 | 43 | 1011.1 |
| 20260831000106 | 62 | 253 | 18.0 | 33.0 | 0.00 | 0.05 | 0.02 | 43 | 1011.0 |
| 20260830234601 | 63 | 279 | 20.0 | 31.0 | 0.00 | 0.08 | 0.02 | 41 | 1011.0 |
| 20260830233106 | 64 | 265 | 19.0 | 31.0 | 0.00 | 0.08 | 0.02 | 39 | 1011.0 |
| 20260830231607 | 64 | 248 | 21.0 | 33.0 | 0.00 | 0.08 | 0.02 | 41 | 1010.9 |
| 20260830230056 | 64 | 262 | 17.0 | 29.0 | 0.00 | 0.08 | 0.02 | 41 | 1010.8 |
| 20260830224559 | 64 | 288 | 18.0 | 31.0 | 0.00 | 0.08 | 0.02 | 39 | 1010.8 |
| 20260830223103 | 63 | 258 | 15.0 | 33.0 | 0.00 | 0.08 | 0.02 | 41 | 1010.8 |
| 20260830221557 | 64 | 263 | 20.0 | 34.0 | 0.00 | 0.08 | 0.02 | 41 | 1010.9 |
| 20260830220100 | 64 | 268 | 16.0 | 33.0 | 0.00 | 0.08 | 0.02 | 41 | 1011.1 |
| 20260830214553 | 65 | 260 | 18.0 | 31.0 | 0.00 | 0.08 | 0.02 | 40 | 1011.1 |
| 20260830213113 | 62 | 252 | 17.0 | 27.0 | 0.00 | 0.08 | 0.02 | 43 | 1011.3 |
| 20260830211606 | 62 | 240 | 22.0 | 29.0 | 0.00 | 0.08 | 0.02 | 43 | 1011.4 |
| 20260830210056 | 62 | 234 | 21.0 | 30.0 | 0.00 | 0.08 | 0.02 | 43 | 1011.5 |
| 20260830204600 | 64 | 272 | 17.0 | 30.0 | 0.00 | 0.08 | 0.02 | 41 | 1011.5 |
| 20260830203056 | 64 | 274 | 20.0 | 30.0 | 0.00 | 0.08 | 0.02 | 42 | 1011.5 |
| 20260830201603 | 62 | 240 | 17.0 | 30.0 | 0.00 | 0.08 | 0.02 | 43 | 1011.6 |
| 20260830200054 | 63 | 267 | 19.0 | 30.0 | 0.00 | 0.08 | 0.02 | 44 | 1011.6 |
| 20260830194603 | 62 | 261 | 20.0 | 29.0 | 0.00 | 0.08 | 0.02 | 44 | 1011.6 |
| 20260830193056 | 63 | 259 | 20.0 | 32.0 | 0.00 | 0.08 | 0.02 | 42 | 1011.4 |
| 20260830191556 | 65 | 254 | 16.0 | 28.0 | 0.00 | 0.08 | 0.02 | 39 | 1011.3 |
| 20260830190103 | 64 | 262 | 20.0 | 31.0 | 0.00 | 0.08 | 0.02 | 41 | 1011.3 |
| 20260830184557 | 63 | 263 | 18.0 | 29.0 | 0.00 | 0.08 | 0.02 | 41 | 1011.2 |
| 20260830183055 | 64 | 273 | 15.0 | 25.0 | 0.00 | 0.08 | 0.02 | 41 | 1011.1 |
| 20260830181559 | 65 | 244 | 19.0 | 28.0 | 0.00 | 0.08 | 0.02 | 40 | 1011.2 |
| 20260830180100 | 64 | 246 | 16.0 | 24.0 | 0.00 | 0.08 | 0.02 | 40 | 1011.4 |
| 20260830174600 | 64 | 246 | 17.0 | 25.0 | 0.00 | 0.08 | 0.02 | 39 | 1011.2 |
| 20260830173055 | 64 | 243 | 13.0 | 25.0 | 0.00 | 0.08 | 0.02 | 40 | 1011.3 |
| 20260830171602 | 62 | 258 | 18.0 | 26.0 | 0.00 | 0.08 | 0.02 | 41 | 1011.5 |
| 20260830170056 | 63 | 252 | 15.0 | 26.0 | 0.00 | 0.08 | 0.02 | 43 | 1011.5 |
| 20260830164608 | 62 | 259 | 13.0 | 19.0 | 0.00 | 0.08 | 0.02 | 43 | 1011.6 |
| 20260830163103 | 61 | 257 | 12.0 | 17.0 | 0.00 | 0.08 | 0.02 | 51 | 1011.5 |
| 20260830161619 | 59 | 246 | 7.0 | 12.0 | 0.00 | 0.08 | 0.02 | 56 | 1011.6 |
| 20260830160112 | 59 | 248 | 9.0 | 15.0 | 0.00 | 0.08 | 0.02 | 52 | 1012.0 |
| 20260830154610 | 58 | 244 | 4.0 | 9.0 | 0.00 | 0.08 | 0.02 | 54 | 1012.3 |
| 20260830153109 | 58 | 239 | 5.0 | 13.0 | 0.00 | 0.08 | 0.02 | 61 | 1012.1 |
| 20260830151613 | 58 | 252 | 6.0 | 10.0 | 0.00 | 0.08 | 0.02 | 55 | 1012.0 |
| 20260830150121 | 56 | 289 | 6.0 | 10.0 | 0.00 | 0.08 | 0.02 | 64 | 1011.8 |
| 20260830144555 | 54 | 278 | 5.0 | 8.0 | 0.00 | 0.08 | 0.02 | 71 | 1011.9 |
| 20260830143058 | 51 | 275 | 4.0 | 8.0 | 0.00 | 0.08 | 0.02 | 77 | 1011.9 |
| 20260830141556 | 50 | 0 | 2.0 | 7.0 | 0.00 | 0.08 | 0.02 | 79 | 1011.9 |
| 20260830134557 | 50 | 0 | 1.0 | 5.0 | 0.00 | 0.08 | 0.02 | 81 | 1012.1 |
| 20260830133055 | 50 | 0 | 0.0 | 3.0 | 0.01 | 0.08 | 0.02 | 83 | 1012.0 |
| 20260830131604 | 51 | 0 | 0.0 | 5.0 | 0.01 | 0.08 | 0.02 | 84 | 1011.9 |
| 20260830130109 | 51 | 244 | 0.0 | 4.0 | 0.01 | 0.08 | 0.02 | 84 | 1012.0 |
| 20260830124600 | 52 | 0 | 2.0 | 7.0 | 0.01 | 0.08 | 0.02 | 87 | 1011.8 |
| 20260830123054 | 52 | 0 | 1.0 | 5.0 | 0.00 | 0.07 | 0.01 | 88 | 1011.5 |
| 20260830121601 | 53 | 243 | 0.0 | 0.0 | 0.00 | 0.07 | 0.01 | 87 | 1011.5 |
| 20260830120110 | 53 | 0 | 0.0 | 5.0 | 0.00 | 0.07 | 0.01 | 86 | 1011.5 |
| 20260830114607 | 54 | 240 | 0.0 | 4.0 | 0.00 | 0.07 | 0.01 | 85 | 1011.7 |
| 20260830113101 | 55 | 241 | 7.0 | 18.0 | 0.00 | 0.07 | 0.01 | 82 | 1012.0 |
| 20260830111556 | 54 | 275 | 6.0 | 8.0 | 0.00 | 0.07 | 0.01 | 86 | 1012.1 |
| 20260830110100 | 54 | 0 | 0.0 | 9.0 | 0.00 | 0.07 | 0.01 | 84 | 1011.6 |
| 20260830104603 | 54 | 286 | 5.0 | 10.0 | 0.00 | 0.07 | 0.01 | 85 | 1011.9 |
| 20260830103058 | 55 | 280 | 6.0 | 11.0 | 0.00 | 0.07 | 0.01 | 83 | 1011.7 |
| 20260830101556 | 54 | 211 | 3.0 | 4.0 | 0.00 | 0.07 | 0.01 | 87 | 1011.5 |
| 20260830100058 | 54 | 211 | 3.0 | 4.0 | 0.00 | 0.07 | 0.01 | 89 | 1011.3 |
| 20260830094557 | 54 | 211 | 2.0 | 3.0 | 0.00 | 0.07 | 0.01 | 89 | 1011.4 |
| 20260830093058 | 54 | 211 | 2.0 | 5.0 | 0.01 | 0.07 | 0.01 | 89 | 1011.4 |
| 20260830091556 | 54 | 0 | 0.0 | 0.0 | 0.01 | 0.07 | 0.01 | 89 | 1011.4 |
| 20260830090122 | 54 | 0 | 0.0 | 4.0 | 0.01 | 0.07 | 0.01 | 89 | 1011.1 |
| 20260830084559 | 54 | 211 | 6.0 | 11.0 | 0.01 | 0.07 | 0.01 | 89 | 1011.8 |
| 20260830083056 | 55 | 219 | 9.0 | 14.0 | 0.00 | 0.06 | 0.00 | 88 | 1012.3 |
| 20260830081559 | 55 | 217 | 9.0 | 21.0 | 0.00 | 0.06 | 0.00 | 87 | 1012.4 |
| 20260830080100 | 55 | 208 | 17.0 | 22.0 | 0.00 | 0.06 | 0.00 | 87 | 1012.7 |
| 20260830074633 | 56 | 209 | 17.0 | 27.0 | 0.00 | 0.06 | 0.00 | 87 | 1012.5 |
| 20260830073101 | 57 | 213 | 14.0 | 21.0 | 0.00 | 0.06 | 0.00 | 88 | 1012.3 |
| 20260830071601 | 56 | 219 | 11.0 | 15.0 | 0.00 | 0.06 | 0.00 | 90 | 1012.2 |
| 20260830070110 | 56 | 236 | 5.0 | 9.0 | 0.00 | 0.06 | 0.00 | 90 | 1011.8 |